Карточка аэропорта UWKE

Внимание!
Информация на этой странице в стадии наполнения.
Если вы не увидели какой-то информации, или заметили неточность - пожалуйста сообщите нам!
Спасибо!
Команда RU-STAFF
Название аэропортаБегишево
Название аэропорта (англ.)Begishevo
Превышение643 ft. (196 m.)
Координаты55°33.882', 52°5.5500000000001'
Высота перехода700m
Эшелон переходаQFE>=742mm:FL040; QFE<742=>715:FL050; QFE<715:FL060
Коды ответчика1000
Зона ОрВДСамара РПИ (UWWW)
Данные METARUWKE 260200Z 26003MPS CAVOK 13/09 Q1017 R21/090070 NOSIG RMK QFE746/0994
Проноз погоды (TAF)UWKE 251952Z 2521/2621 27005G12MPS 9999 SCT040 TEMPO 2521/2524 25007G14MPS SCT020CB TEMPO 2600/2606 30007G14MPS 3100 -SHRA BKN005 BKN020CB BECMG 2606/2608 35005G12MPS TEMPO 2606/2608 6000 -SHRA BKN016CB BECMG 2618/2619 01003G09MPS
NOTAMshow/hide NOTAM
AWOS   TABLE

Информация о ВПП

ВПП Длина ВПП (м.) Покрытие Курс ВПП Частота ILS
032502Асфальтобетон34 
212502Асфальтобетон214109.9

Диспетчерские позиции

Позывной Наименование органа УВД Частота
UWKE_R_APPБегишево-Круг127.900
UWKE_TWRБегишево-Вышка121.200



Спутниковое изображение